EW0250 Weather Reports


Display with metric or nautical units.
time (UTC)temp
F
wind
direction
speed
MPH
gust
MPH
rain 1hr
in
rain 24hr
in
rain mn
in
humidity
%
barometer
mb
20210805011511 71 269 0.0 0.0 0.00 0.00 0.00 70 1019.8
20210805010034 72 269 0.0 1.0 0.00 0.00 0.00 69 1019.8
20210805004511 72 267 0.0 1.0 0.00 0.00 0.00 68 1019.6
20210805003018 73 266 0.0 0.0 0.00 0.00 0.00 67 1019.6
20210805001513 74 266 0.0 2.0 0.00 0.00 0.00 65 1019.7
20210805000040 75 265 0.0 1.0 0.00 0.00 0.00 61 1019.5
20210804234513 75 265 0.0 1.0 0.00 0.00 0.00 59 1019.5
20210804233006 76 266 0.0 1.0 0.00 0.00 0.00 60 1019.4
20210804231504 76 267 0.0 1.0 0.00 0.00 0.00 61 1019.3
20210804230010 76 284 0.0 3.0 0.00 0.00 0.00 60 1019.3
20210804224502 77 278 0.0 1.0 0.00 0.00 0.00 59 1019.3
20210804223001 77 281 0.0 1.0 0.00 0.00 0.00 59 1019.3
20210804221506 77 286 0.0 1.0 0.00 0.00 0.00 58 1019.2
20210804220116 78 285 0.0 2.0 0.00 0.00 0.00 57 1019.2
20210804214655 79 279 0.0 3.0 0.00 0.00 0.00 53 1019.3
20210804213125 79 287 0.0 2.0 0.00 0.00 0.00 54 1019.3
20210804211740 78 271 0.0 1.0 0.00 0.00 0.00 55 1019.6
20210804210231 78 269 0.0 1.0 0.00 0.00 0.00 54 1019.4
20210804204639 79 286 0.0 1.0 0.00 0.00 0.00 54 1019.5
20210804203230 79 274 0.0 3.0 0.00 0.00 0.00 52 1019.6
20210804201709 79 275 0.0 1.0 0.00 0.00 0.00 48 1019.7
20210804200244 79 276 0.0 2.0 0.00 0.00 0.00 50 1019.7
20210804194809 79 275 0.0 2.0 0.00 0.00 0.00 49 1019.8
20210804193309 79 281 0.0 3.0 0.00 0.00 0.00 51 1020.0
20210804191722 79 283 0.0 2.0 0.00 0.00 0.00 54 1020.2
20210804190211 78 282 0.0 2.0 0.00 0.00 0.00 56 1020.2
20210804184734 78 279 0.0 3.0 0.00 0.00 0.00 54 1020.3
20210804183103 78 281 0.0 2.0 0.00 0.00 0.00 54 1020.4
20210804181718 78 264 0.0 2.0 0.00 0.00 0.00 49 1020.4
20210804180110 77 282 0.0 3.0 0.00 0.00 0.00 51 1020.3
20210804174543 77 288 0.0 3.0 0.00 0.00 0.00 55 1020.3
20210804173110 77 278 0.0 3.0 0.00 0.00 0.00 59 1020.4
20210804171650 77 284 0.0 2.0 0.00 0.00 0.00 61 1020.6
20210804170217 76 290 0.0 2.0 0.00 0.00 0.00 62 1020.7
20210804164539 76 273 0.0 2.0 0.00 0.00 0.00 63 1020.7
20210804163043 76 270 0.0 3.0 0.00 0.00 0.00 64 1020.9
20210804161547 76 290 0.0 2.0 0.00 0.00 0.00 62 1020.9
20210804160140 75 286 0.0 1.0 0.00 0.00 0.00 61 1021.1
20210804154600 74 281 0.0 2.0 0.00 0.00 0.00 65 1021.3
20210804153039 73 288 0.0 3.0 0.00 0.00 0.00 67 1021.2
20210804151524 71 286 0.0 1.0 0.00 0.00 0.00 72 1021.3
20210804150055 70 282 0.0 1.0 0.00 0.00 0.00 74 1021.3
20210804144525 69 269 0.0 2.0 0.00 0.00 0.00 75 1021.3
20210804143017 68 271 0.0 1.0 0.00 0.00 0.00 76 1021.1
20210804141508 67 259 0.0 2.0 0.00 0.00 0.00 77 1021.1
20210804140006 66 269 0.0 1.0 0.00 0.00 0.00 79 1021.0
20210804134620 66 273 0.0 1.0 0.00 0.00 0.00 81 1021.1
20210804133130 65 269 0.0 1.0 0.00 0.00 0.00 84 1021.2
20210804131718 64 278 0.0 1.0 0.00 0.00 0.00 85 1021.1
20210804130111 63 267 0.0 1.0 0.00 0.00 0.00 87 1021.1
20210804124622 62 271 0.0 0.0 0.00 0.00 0.00 89 1021.2
20210804123115 61 272 0.0 0.0 0.00 0.00 0.00 91 1021.3
20210804121639 60 272 0.0 0.0 0.00 0.00 0.00 93 1021.1
20210804120324 59 276 0.0 0.0 0.00 0.00 0.00 95 1020.9
20210804114634 58 276 0.0 0.0 0.00 0.00 0.00 95 1020.7
20210804113102 58 276 0.0 0.0 0.00 0.00 0.00 95 1020.7
20210804111625 57 276 0.0 0.0 0.00 0.00 0.00 96 1020.5
20210804110152 57 273 0.0 0.0 0.00 0.00 0.00 95 1020.4
20210804104638 57 273 0.0 0.0 0.00 0.00 0.00 95 1020.3
20210804103048 57 273 0.0 0.0 0.00 0.00 0.00 95 1020.3
20210804101653 57 273 0.0 0.0 0.00 0.00 0.00 95 1020.2
20210804100146 57 273 0.0 0.0 0.00 0.00 0.00 95 1020.0
20210804094535 57 273 0.0 0.0 0.00 0.00 0.00 95 1019.9
20210804093041 57 273 0.0 0.0 0.00 0.00 0.00 95 1019.6
20210804091545 57 273 0.0 0.0 0.00 0.00 0.00 95 1019.4
20210804090057 57 274 0.0 0.0 0.00 0.00 0.00 94 1019.4
20210804084539 57 273 0.0 0.0 0.00 0.00 0.00 95 1019.5
20210804083122 57 273 0.0 0.0 0.00 0.00 0.00 95 1019.3
20210804081615 58 273 0.0 0.0 0.00 0.00 0.00 95 1019.3
20210804080058 58 273 0.0 0.0 0.00 0.00 0.00 95 1019.2
20210804074546 58 273 0.0 0.0 0.00 0.00 0.00 95 1019.1
20210804073046 58 273 0.0 0.0 0.00 0.00 0.00 94 1019.0
20210804071617 58 273 0.0 0.0 0.00 0.00 0.00 94 1019.3
20210804070045 58 272 0.0 0.0 0.00 0.00 0.00 93 1019.2
20210804064607 59 271 0.0 0.0 0.00 0.00 0.00 93 1019.2
20210804063033 59 272 0.0 0.0 0.00 0.00 0.00 93 1019.0
20210804061516 59 272 0.0 0.0 0.00 0.00 0.00 92 1019.1
20210804060023 60 272 0.0 0.0 0.00 0.00 0.00 92 1019.1
20210804054511 60 271 0.0 0.0 0.00 0.00 0.00 91 1018.9
20210804051521 61 271 0.0 0.0 0.00 0.00 0.00 86 1018.8
20210804050310 61 272 0.0 0.0 0.00 0.00 0.00 85 1019.0
20210804044724 62 271 0.0 0.0 0.00 0.00 0.00 85 1019.1
20210804043149 62 270 0.0 0.0 0.00 0.00 0.00 85 1019.0
20210804041703 63 271 0.0 0.0 0.00 0.00 0.00 85 1019.0
20210804040119 63 271 0.0 0.0 0.00 0.00 0.00 84 1019.0
20210804034616 63 272 0.0 0.0 0.00 0.00 0.00 83 1018.8
20210804033131 63 272 0.0 0.0 0.00 0.00 0.00 84 1018.8
20210804031629 64 271 0.0 0.0 0.00 0.00 0.00 83 1018.8
20210804030130 64 271 0.0 0.0 0.00 0.00 0.00 83 1018.7
20210804024618 64 271 0.0 0.0 0.00 0.00 0.00 82 1018.6
20210804023105 65 271 0.0 0.0 0.00 0.00 0.00 80 1018.6
20210804021714 66 272 0.0 0.0 0.00 0.00 0.00 79 1018.7
20210804020055 66 270 0.0 0.0 0.00 0.00 0.00 77 1018.7
20210804014701 66 270 0.0 0.0 0.00 0.00 0.00 77 1018.8
20210804013224 67 271 0.0 0.0 0.00 0.00 0.00 75 1018.7